KO6LQJ Weather Reports


Display with metric or nautical units.
time (UTC)temp
F
wind
direction
speed
MPH
gust
MPH
rain 1hr
in
rain 24hr
in
rain mn
in
humidity
%
barometer
mb
20260506231838 76 179 0.0 0.0 0.00 0.00 0.00 44 1017.2
20260506231336 76 178 0.0 1.0 0.00 0.00 0.00 44 1017.3
20260506230833 75 176 1.0 2.0 0.00 0.00 0.00 46 1017.4
20260506230330 77 150 2.0 2.0 0.00 0.00 0.00 43 1017.1
20260506225826 77 184 0.0 1.0 0.00 0.00 0.00 43 1017.3
20260506225324 77 204 0.0 1.0 0.00 0.00 0.00 44 1017.2
20260506224820 77 219 0.0 0.0 0.00 0.00 0.00 44 1017.4
20260506224318 77 180 0.0 0.0 0.00 0.00 0.00 44 1017.6
20260506223814 78 193 0.0 0.0 0.00 0.00 0.00 43 1017.4
20260506223309 78 196 0.0 0.0 0.00 0.00 0.00 43 1017.4
20260506222807 78 159 1.0 2.0 0.00 0.00 0.00 42 1017.3
20260506222305 78 119 0.0 0.0 0.00 0.00 0.00 42 1017.5
20260506221800 79 204 0.0 0.0 0.00 0.00 0.00 43 1017.6
20260506221258 78 171 0.0 0.0 0.00 0.00 0.00 42 1017.6
20260506220756 78 195 0.0 0.0 0.00 0.00 0.00 43 1017.7
20260506220255 79 208 0.0 0.0 0.00 0.00 0.00 43 1017.8
20260506215753 79 165 0.0 1.0 0.00 0.00 0.00 42 1018.1
20260506215248 78 193 0.0 0.0 0.00 0.00 0.00 43 1017.9
20260506214744 77 184 0.0 0.0 0.00 0.00 0.00 43 1018.1
20260506214242 77 209 0.0 1.0 0.00 0.00 0.00 44 1018.0
20260506213740 77 184 0.0 1.0 0.00 0.00 0.00 45 1018.2
20260506213237 77 244 0.0 0.0 0.00 0.00 0.00 44 1018.3
20260506212734 77 126 2.0 3.0 0.00 0.00 0.00 43 1018.2
20260506212230 77 221 0.0 0.0 0.00 0.00 0.00 44 1018.2
20260506211725 78 172 0.0 0.0 0.00 0.00 0.00 44 1018.4
20260506211222 78 178 0.0 0.0 0.00 0.00 0.00 44 1018.5
20260506210719 77 161 0.0 1.0 0.00 0.00 0.00 44 1018.5
20260506210216 78 221 0.0 0.0 0.00 0.00 0.00 44 1018.5
20260506205713 77 189 0.0 1.0 0.00 0.00 0.00 43 1018.6
20260506205208 78 152 1.0 1.0 0.00 0.00 0.00 43 1018.7
20260506204705 80 174 0.0 0.0 0.00 0.00 0.00 42 1018.4
20260506204202 78 182 0.0 0.0 0.00 0.00 0.00 42 1018.4
20260506203700 78 165 0.0 0.0 0.00 0.00 0.00 43 1018.5
20260506203157 77 195 0.0 1.0 0.00 0.00 0.00 43 1018.6
20260506202655 77 244 0.0 0.0 0.00 0.00 0.00 44 1018.7
20260506202151 77 191 3.0 5.0 0.00 0.00 0.00 42 1018.8
20260506201648 75 232 0.0 0.0 0.00 0.00 0.00 44 1018.6
20260506201144 77 178 3.0 5.0 0.00 0.00 0.00 43 1018.9
20260506200641 74 136 2.0 2.0 0.00 0.00 0.00 45 1018.9
20260506200138 75 148 1.0 1.0 0.00 0.00 0.00 45 1019.0
20260506195635 75 149 4.0 5.0 0.00 0.00 0.00 44 1019.2
20260506195131 76 139 1.0 1.0 0.00 0.00 0.00 44 1019.2
20260506194629 77 78 0.0 0.0 0.00 0.00 0.00 43 1019.2
20260506194125 75 96 2.0 2.0 0.00 0.00 0.00 45 1019.1
20260506193623 74 119 0.0 0.0 0.00 0.00 0.00 46 1019.3
20260506193120 76 192 0.0 1.0 0.00 0.00 0.00 44 1019.2
20260506192616 75 192 1.0 2.0 0.00 0.00 0.00 46 1019.3
20260506192112 73 121 1.0 1.0 0.00 0.00 0.00 46 1019.5
20260506191609 73 31 4.0 6.0 0.00 0.00 0.00 46 1019.5
20260506191105 73 160 0.0 0.0 0.00 0.00 0.00 46 1019.6
20260506190603 74 140 2.0 2.0 0.00 0.00 0.00 45 1019.8
20260506190059 73 175 0.0 0.0 0.00 0.00 0.00 47 1019.6
20260506185557 71 99 0.0 0.0 0.00 0.00 0.00 49 1019.6
20260506185053 73 154 0.0 1.0 0.00 0.00 0.00 47 1019.6
20260506184550 73 85 0.0 0.0 0.00 0.00 0.00 47 1019.9
20260506184048 73 152 3.0 3.0 0.00 0.00 0.00 47 1020.0
20260506183543 72 196 0.0 0.0 0.00 0.00 0.00 48 1019.9
20260506183040 73 200 0.0 0.0 0.00 0.00 0.00 45 1020.0
20260506182538 74 176 0.0 0.0 0.00 0.00 0.00 45 1019.9
20260506182035 71 144 1.0 1.0 0.00 0.00 0.00 48 1020.0
20260506181533 71 229 0.0 0.0 0.00 0.00 0.00 48 1020.2
20260506181029 72 146 1.0 2.0 0.00 0.00 0.00 47 1020.4
20260506180526 73 136 3.0 3.0 0.00 0.00 0.00 47 1020.4
20260506180022 73 182 0.0 0.0 0.00 0.00 0.00 47 1020.2
20260506175519 71 188 0.0 0.0 0.00 0.00 0.00 48 1020.3
20260506175015 71 184 0.0 0.0 0.00 0.00 0.00 49 1020.1
20260506174514 71 196 0.0 0.0 0.00 0.00 0.00 49 1020.3
20260506174010 72 190 0.0 0.0 0.00 0.00 0.00 48 1020.4
20260506173508 72 168 0.0 0.0 0.00 0.00 0.00 48 1020.2
20260506173004 72 159 0.0 0.0 0.00 0.00 0.00 47 1020.2
20260506172502 69 152 0.0 0.0 0.00 0.00 0.00 50 1020.2
20260506171957 70 193 0.0 0.0 0.00 0.00 0.00 49 1020.2
20260506171455 70 179 0.0 0.0 0.00 0.00 0.00 49 1020.3
20260506170953 70 175 0.0 0.0 0.00 0.00 0.00 48 1020.2
20260506170449 70 168 0.0 0.0 0.00 0.00 0.00 49 1020.3
20260506165948 69 177 0.0 0.0 0.00 0.00 0.00 50 1020.4
20260506165446 68 152 1.0 2.0 0.00 0.00 0.00 52 1020.3
20260506164942 68 155 0.0 1.0 0.00 0.00 0.00 52 1020.3
20260506164439 68 175 0.0 0.0 0.00 0.00 0.00 52 1020.3
20260506163937 69 152 1.0 1.0 0.00 0.00 0.00 51 1020.2
20260506163431 68 164 0.0 0.0 0.00 0.00 0.00 53 1020.1
20260506162926 67 150 0.0 0.0 0.00 0.00 0.00 54 1020.2
20260506162424 66 158 0.0 0.0 0.00 0.00 0.00 55 1020.2
20260506161922 67 138 1.0 1.0 0.00 0.00 0.00 54 1020.2
20260506161420 67 115 0.0 0.0 0.00 0.00 0.00 56 1020.2
20260506160917 67 106 1.0 1.0 0.00 0.00 0.00 54 1020.6
20260506160414 66 158 0.0 0.0 0.00 0.00 0.00 56 1020.3
20260506155912 65 147 0.0 1.0 0.00 0.00 0.00 59 1020.3
20260506155409 66 95 0.0 0.0 0.00 0.00 0.00 57 1020.5
20260506153525 65 97 0.0 0.0 0.00 0.00 0.00 58 1020.4
20260506153023 65 92 0.0 0.0 0.00 0.00 0.00 57 1020.3
20260506152519 65 95 0.0 0.0 0.00 0.00 0.00 57 1020.4
20260506152018 64 92 0.0 0.0 0.00 0.00 0.00 59 1020.1
20260506151514 64 95 0.0 0.0 0.00 0.00 0.00 58 1020.3
20260506151012 63 98 0.0 0.0 0.00 0.00 0.00 59 1020.4
20260506150508 63 96 0.0 0.0 0.00 0.00 0.00 59 1020.3
20260506150005 63 96 0.0 0.0 0.00 0.00 0.00 59 1020.4
20260506145501 63 96 0.0 0.0 0.00 0.00 0.00 58 1020.4
20260506144959 63 95 0.0 0.0 0.00 0.00 0.00 59 1020.5
20260506144456 62 96 0.0 0.0 0.00 0.00 0.00 59 1020.4
20260506143954 61 96 0.0 0.0 0.00 0.00 0.00 62 1020.5
20260506143451 60 97 0.0 0.0 0.00 0.00 0.00 62 1020.5
20260506142949 60 97 0.0 0.0 0.00 0.00 0.00 63 1020.5
20260506142446 60 96 0.0 0.0 0.00 0.00 0.00 63 1020.4
20260506141944 59 96 0.0 0.0 0.00 0.00 0.00 65 1020.3
20260506141442 59 98 0.0 0.0 0.00 0.00 0.00 64 1020.5
20260506140941 57 98 0.0 0.0 0.00 0.00 0.00 67 1020.3
20260506140437 57 98 0.0 0.0 0.00 0.00 0.00 70 1020.5
20260506135934 55 99 0.0 0.0 0.00 0.00 0.00 72 1020.3
20260506135431 53 98 0.0 0.0 0.00 0.00 0.00 76 1020.2
20260506134927 51 99 0.0 0.0 0.00 0.00 0.00 78 1020.1
20260506134423 50 99 0.0 0.0 0.00 0.00 0.00 79 1020.3
20260506133920 50 99 0.0 0.0 0.00 0.00 0.00 78 1020.0
20260506133417 50 99 0.0 0.0 0.00 0.00 0.00 78 1020.0
20260506132914 50 99 0.0 0.0 0.00 0.00 0.00 78 1020.0
20260506132411 50 99 0.0 0.0 0.00 0.00 0.00 78 1019.6
20260506131909 50 99 0.0 0.0 0.00 0.00 0.00 78 1019.8
20260506131405 50 99 0.0 0.0 0.00 0.00 0.00 77 1020.1
20260506130902 50 99 0.0 0.0 0.00 0.00 0.00 77 1020.0
20260506130358 50 99 0.0 0.0 0.00 0.00 0.00 77 1020.1
20260506125857 50 99 0.0 0.0 0.00 0.00 0.00 77 1019.6
20260506125355 50 99 0.0 0.0 0.00 0.00 0.00 77 1019.5
20260506124853 51 99 0.0 0.0 0.00 0.00 0.00 77 1019.5
20260506124349 50 99 0.0 0.0 0.00 0.00 0.00 77 1019.6
20260506123847 50 99 0.0 0.0 0.00 0.00 0.00 77 1019.6
20260506123345 50 99 0.0 0.0 0.00 0.00 0.00 77 1019.5
20260506122842 50 99 0.0 0.0 0.00 0.00 0.00 76 1019.4
20260506122339 50 99 0.0 0.0 0.00 0.00 0.00 76 1019.4
20260506121837 51 99 0.0 0.0 0.00 0.00 0.00 76 1019.2
20260506121334 51 99 0.0 0.0 0.00 0.00 0.00 76 1019.4
20260506120831 51 99 0.0 0.0 0.00 0.00 0.00 76 1019.1
20260506120329 51 99 0.0 0.0 0.00 0.00 0.00 76 1019.2
20260506115826 51 99 0.0 0.0 0.00 0.00 0.00 76 1019.5
20260506115324 51 99 0.0 0.0 0.00 0.00 0.00 76 1019.2
20260506114822 51 100 0.0 0.0 0.00 0.00 0.00 76 1019.3
20260506114319 51 99 0.0 0.0 0.00 0.00 0.00 76 1019.2
20260506113818 51 99 0.0 0.0 0.00 0.00 0.00 76 1019.4
20260506113315 51 99 0.0 0.0 0.00 0.00 0.00 76 1019.1
20260506112811 51 99 0.0 0.0 0.00 0.00 0.00 76 1019.3
20260506112309 51 99 0.0 0.0 0.00 0.00 0.00 76 1019.0
20260506111806 51 99 0.0 0.0 0.00 0.00 0.00 76 1019.0
20260506111304 51 99 0.0 0.0 0.00 0.00 0.00 76 1019.1
20260506110801 51 99 0.0 0.0 0.00 0.00 0.00 75 1019.2
20260506110258 51 99 0.0 0.0 0.00 0.00 0.00 75 1019.1
20260506105754 51 99 0.0 0.0 0.00 0.00 0.00 75 1019.0
20260506105252 51 99 0.0 0.0 0.00 0.00 0.00 75 1018.9
20260506104749 51 98 0.0 0.0 0.00 0.00 0.00 74 1018.9
20260506104247 51 99 0.0 0.0 0.00 0.00 0.00 74 1019.4
20260506103744 52 99 0.0 0.0 0.00 0.00 0.00 72 1019.1
20260506103241 52 99 0.0 0.0 0.00 0.00 0.00 72 1018.9
20260506102739 53 99 0.0 0.0 0.00 0.00 0.00 72 1019.1
20260506102237 53 98 0.0 0.0 0.00 0.00 0.00 72 1019.0
20260506101733 53 99 0.0 0.0 0.00 0.00 0.00 71 1018.8
20260506101230 53 100 0.0 0.0 0.00 0.00 0.00 71 1019.1
20260506100728 53 100 0.0 0.0 0.00 0.00 0.00 71 1018.9
20260506100226 53 99 0.0 0.0 0.00 0.00 0.00 71 1019.1
20260506095724 53 99 0.0 0.0 0.00 0.00 0.00 71 1019.1
20260506095220 53 100 0.0 0.0 0.00 0.00 0.00 71 1019.1
20260506094717 53 100 0.0 0.0 0.00 0.00 0.00 71 1019.3
20260506094215 53 100 0.0 0.0 0.00 0.00 0.00 71 1019.3
20260506093714 54 100 0.0 0.0 0.00 0.00 0.00 71 1019.4
20260506093210 54 100 0.0 0.0 0.00 0.00 0.00 71 1019.4
20260506092708 54 100 0.0 0.0 0.00 0.00 0.00 71 1019.2
20260506092206 54 100 0.0 0.0 0.00 0.00 0.00 71 1019.0
20260506091703 53 99 0.0 0.0 0.00 0.00 0.00 71 1019.0
20260506091201 53 99 0.0 0.0 0.00 0.00 0.00 71 1018.9
20260506090658 54 99 0.0 0.0 0.00 0.00 0.00 71 1019.3
20260506090154 54 99 0.0 0.0 0.00 0.00 0.00 71 1019.2
20260506085652 54 99 0.0 0.0 0.00 0.00 0.00 70 1019.2
20260506085148 54 99 0.0 0.0 0.00 0.00 0.00 70 1019.5
20260506084645 53 99 0.0 0.0 0.00 0.00 0.00 70 1019.6
20260506084141 53 100 0.0 0.0 0.00 0.00 0.00 71 1019.6
20260506083638 53 98 0.0 0.0 0.00 0.00 0.00 71 1019.8
20260506083136 53 99 0.0 0.0 0.00 0.00 0.00 71 1019.9
20260506082632 53 98 0.0 0.0 0.00 0.00 0.00 71 1019.8
20260506082128 54 98 0.0 0.0 0.00 0.00 0.00 71 1019.5
20260506081626 54 98 0.0 0.0 0.00 0.00 0.00 70 1019.8
20260506081124 54 98 0.0 0.0 0.00 0.00 0.00 70 1019.5
20260506080622 54 98 0.0 0.0 0.00 0.00 0.00 70 1019.6
20260506080118 55 98 0.0 0.0 0.00 0.00 0.00 71 1019.8
20260506073102 55 98 0.0 0.0 0.00 0.00 0.00 70 1019.8
20260506072558 55 98 0.0 0.0 0.00 0.00 0.00 70 1019.5
20260506072056 55 98 0.0 0.0 0.00 0.00 0.00 69 1019.6
20260506071554 56 98 0.0 0.0 0.00 0.00 0.00 67 1019.5
20260506071051 56 97 0.0 0.0 0.00 0.00 0.00 66 1019.3
20260506070548 57 94 0.0 0.0 0.00 0.00 0.00 66 1019.2
20260506062022 55 98 0.0 0.0 0.00 0.00 0.00 70 1019.0
20260506061518 55 98 0.0 0.0 0.00 0.00 0.00 69 1018.8
20260506061016 56 98 0.0 0.0 0.00 0.00 0.00 69 1018.9
20260506060514 56 98 0.0 0.0 0.00 0.00 0.00 68 1018.9
20260506050943 57 98 0.0 0.0 0.00 0.00 0.00 66 1018.6
20260506050441 57 98 0.0 0.0 0.00 0.00 0.00 65 1018.6
20260506044931 58 95 0.0 0.0 0.00 0.00 0.00 64 1018.4
20260506044430 59 93 1.0 2.0 0.00 0.00 0.00 63 1018.1
20260506043926 59 85 1.0 2.0 0.00 0.00 0.00 63 1018.0
20260506043423 58 80 1.0 1.0 0.00 0.00 0.00 63 1017.8
20260506042921 58 104 0.0 0.0 0.00 0.00 0.00 63 1018.1
20260506042420 58 107 0.0 0.0 0.00 0.00 0.00 64 1017.8
20260506041918 58 106 0.0 0.0 0.00 0.00 0.00 64 1017.6
20260506041415 58 108 0.0 0.0 0.00 0.00 0.00 62 1017.5
20260506040912 59 108 0.0 0.0 0.00 0.00 0.00 62 1017.7
20260506040410 59 108 0.0 1.0 0.00 0.00 0.00 62 1017.7
20260506035905 59 150 0.0 0.0 0.00 0.00 0.00 62 1017.6
20260506035403 59 156 0.0 0.0 0.00 0.00 0.00 63 1017.6
20260506034900 59 151 0.0 0.0 0.00 0.00 0.00 63 1017.4
20260506034358 59 151 0.0 0.0 0.00 0.00 0.00 63 1017.5
20260506033854 59 157 0.0 0.0 0.00 0.00 0.00 64 1017.4
20260506033351 59 157 0.0 0.0 0.00 0.00 0.00 63 1017.4
20260506032848 59 157 0.0 0.0 0.00 0.00 0.00 63 1017.4
20260506032345 59 157 0.0 0.0 0.00 0.00 0.00 63 1017.4
20260506031842 60 158 0.0 0.0 0.00 0.00 0.00 62 1017.0
20260506031339 60 158 0.0 0.0 0.00 0.00 0.00 61 1017.2
20260506030837 60 158 0.0 0.0 0.00 0.00 0.00 60 1017.0
20260506030335 61 158 0.0 0.0 0.00 0.00 0.00 59 1017.0
20260506025831 61 158 0.0 0.0 0.00 0.00 0.00 57 1016.8
20260506025327 62 158 0.0 0.0 0.00 0.00 0.00 56 1016.7
20260506024825 62 157 0.0 0.0 0.00 0.00 0.00 55 1016.5
20260506024321 62 151 0.0 0.0 0.00 0.00 0.00 55 1016.5
20260506023817 62 157 1.0 1.0 0.00 0.00 0.00 55 1016.7
20260506023314 62 154 0.0 0.0 0.00 0.00 0.00 55 1016.6
20260506022811 62 153 0.0 0.0 0.00 0.00 0.00 55 1016.4
20260506022309 62 146 0.0 1.0 0.00 0.00 0.00 55 1016.4
20260506021807 62 143 1.0 1.0 0.00 0.00 0.00 54 1016.3
20260506021304 62 159 0.0 1.0 0.00 0.00 0.00 55 1016.3
20260506020800 63 159 0.0 0.0 0.00 0.00 0.00 54 1016.2
20260506020258 63 159 0.0 0.0 0.00 0.00 0.00 54 1016.2
20260506015756 64 159 0.0 0.0 0.00 0.00 0.00 53 1016.0
20260506015253 63 183 0.0 0.0 0.00 0.00 0.00 54 1016.1
20260506014749 63 170 0.0 0.0 0.00 0.00 0.00 55 1016.2
20260506014246 63 176 0.0 0.0 0.00 0.00 0.00 54 1016.1
20260506013743 63 175 0.0 0.0 0.00 0.00 0.00 54 1016.4
20260506013240 63 177 0.0 0.0 0.00 0.00 0.00 54 1016.1
20260506012737 63 174 0.0 0.0 0.00 0.00 0.00 54 1016.2
20260506012234 63 161 0.0 0.0 0.00 0.00 0.00 54 1016.2
20260506011731 64 182 0.0 0.0 0.00 0.00 0.00 53 1016.2
20260506011227 64 158 0.0 0.0 0.00 0.00 0.00 53 1015.9
20260506010726 64 152 0.0 0.0 0.00 0.00 0.00 53 1016.2
20260506010223 64 168 0.0 0.0 0.00 0.00 0.00 54 1016.0
20260506005720 64 174 0.0 0.0 0.00 0.00 0.00 53 1016.2
20260506005216 64 165 0.0 0.0 0.00 0.00 0.00 52 1016.1
20260506004712 64 164 0.0 0.0 0.00 0.00 0.00 52 1016.0
20260506004210 64 175 0.0 0.0 0.00 0.00 0.00 52 1016.1
20260506003706 64 175 0.0 0.0 0.00 0.00 0.00 52 1016.0
20260506003202 65 175 0.0 0.0 0.00 0.00 0.00 52 1015.9
20260506002658 65 178 0.0 0.0 0.00 0.00 0.00 51 1016.0
20260506002155 66 174 0.0 0.0 0.00 0.00 0.00 50 1015.6
20260506001650 66 183 0.0 0.0 0.00 0.00 0.00 49 1015.8
20260506001148 65 173 0.0 0.0 0.00 0.00 0.00 49 1015.9
20260506000645 66 172 0.0 0.0 0.00 0.00 0.00 49 1015.9
20260506000142 66 189 0.0 0.0 0.00 0.00 0.00 48 1016.0
20260505235640 66 183 0.0 0.0 0.00 0.00 0.00 49 1015.8
20260505235138 67 175 0.0 0.0 0.00 0.00 0.00 48 1015.8
20260505234634 65 174 0.0 0.0 0.00 0.00 0.00 51 1015.8
20260505234131 65 179 0.0 0.0 0.00 0.00 0.00 51 1015.9
20260505233628 66 191 0.0 0.0 0.00 0.00 0.00 50 1015.7
20260505233126 67 192 0.0 0.0 0.00 0.00 0.00 49 1015.6
20260505232623 67 178 0.0 0.0 0.00 0.00 0.00 47 1015.9